This is the latest recevied weather packets stored in our database for station/object OE3KAR-14. If no packets are shown the sender has not sent any weather packets the latest 10 day(s).
| Time | Temp. | Humidity | Pressure | Rain* | Wind** | Luminosity | Snow |
|---|---|---|---|---|---|---|---|
| 1787747675 | 34.44° C | 28% | 999.6 hPa | - | - | - | - |
| 1787747372 | 34.44° C | 29% | 999.7 hPa | - | - | - | - |
| 1787747070 | 34.44° C | 29% | 999.7 hPa | - | - | - | - |
| 1787746767 | 33.89° C | 29% | 999.7 hPa | - | - | - | - |
| 1787746465 | 34.44° C | 29% | 999.7 hPa | - | - | - | - |
| 1787746162 | 35° C | 29% | 999.6 hPa | - | - | - | - |
| 1787745556 | 33.33° C | 31% | 999.7 hPa | - | - | - | - |
| 1787745254 | 32.78° C | 31% | 999.7 hPa | - | - | - | - |
| 1787744951 | 32.22° C | 32% | 999.8 hPa | - | - | - | - |
| 1787744648 | 32.22° C | 32% | 999.8 hPa | - | - | - | - |
| 1787744043 | 31.67° C | 33% | 999.9 hPa | - | - | - | - |
| 1787743740 | 31.67° C | 33% | 999.9 hPa | - | - | - | - |
| 1787743438 | 31.67° C | 34% | 999.9 hPa | - | - | - | - |
| 1787743135 | 31.67° C | 35% | 100 hPa | - | - | - | - |
| 1787742832 | 31.11° C | 35% | 1000 hPa | - | - | - | - |
| 1787742530 | 31.11° C | 36% | 1000.1 hPa | - | - | - | - |
| 1787742227 | 30.56° C | 37% | 1000.2 hPa | - | - | - | - |
| 1787741924 | 30° C | 38% | 1000.2 hPa | - | - | - | - |
| 1787741622 | 30° C | 39% | 1000.3 hPa | - | - | - | - |
| 1787741319 | 30° C | 40% | 1000.4 hPa | - | - | - | - |
| 1787741016 | 29.44° C | 41% | 1000.4 hPa | - | - | - | - |
| 1787740714 | 28.89° C | 43% | 1000.4 hPa | - | - | - | - |
| 1787740411 | 27.22° C | 45% | 1000.4 hPa | - | - | - | - |
| 1787740108 | 24.44° C | 49% | 1000.3 hPa | - | - | - | - |
| 1787700661 | 23.89° C | 50% | 998.2 hPa | - | - | - | - |
* Rain since midnight (hover to see other rain measurements)
** Current wind speed in m/s (hover to see current wind gust speed)